AUA831S LOWW-LGMK

Flight info

Callsign AUA831S
Flight time 2h 4m
Altitude 37000
Route ARSIN DCT NALOX DCT BABIT DCT NEVAK DCT INRES DCT IBISI DCT KRATO DCT MAKED DCT BAMOS UL617 SKP UN137 AGAPU
Aircraft A320/M-SDE3FGHIRWY/LB1

Departure

Time 2026-05-04 15:32
Airport Vienna International Airport (LOWW)

Arrival

Time 2026-05-04 17:36
Airport Mykonos Island National Airport (LGMK)
Time Latitude Longitude Altitude Speed Heading
2026-05-04 15:05 48.11765 16.56628 609 ft 0 kts 26°
2026-05-04 15:13 48.11765 16.56627 609 ft 0 kts 26°
2026-05-04 15:16 48.11764 16.56627 609 ft 0 kts 26°
2026-05-04 15:24 48.11742 16.56610 615 ft 3 kts 30°
2026-05-04 15:25 48.11725 16.56594 617 ft 3 kts 36°
2026-05-04 15:25 48.11709 16.56575 625 ft 3 kts 52°
2026-05-04 15:25 48.11701 16.56552 617 ft 3 kts 96°
2026-05-04 15:26 48.11701 16.56541 624 ft 2 kts 116°
2026-05-04 15:27 48.11626 16.56774 614 ft 16 kts 115°
2026-05-04 15:28 48.11530 16.57068 619 ft 17 kts 116°
2026-05-04 15:28 48.11475 16.57239 611 ft 21 kts 115°
2026-05-04 15:28 48.11537 16.57462 609 ft 13 kts 355°
2026-05-04 15:29 48.11624 16.57423 609 ft 14 kts 342°
2026-05-04 15:30 48.12007 16.57397 621 ft 15 kts 76°
2026-05-04 15:30 48.11930 16.57840 616 ft 12 kts 159°
2026-05-04 15:31 48.11916 16.57845 617 ft 2 kts 165°
2026-05-04 15:31 48.11664 16.57953 618 ft 72 kts 164°
2026-05-04 15:32 48.08995 16.59044 1558 ft 150 kts 165°
2026-05-04 15:32 48.06837 16.59887 2499 ft 177 kts 165°
2026-05-04 15:33 48.04139 16.61052 3173 ft 226 kts 167°
2026-05-04 15:34 47.99122 16.62625 5404 ft 257 kts 171°
2026-05-04 15:34 47.97337 16.63147 6231 ft 263 kts 172°
2026-05-04 15:34 47.93684 16.64233 7795 ft 273 kts 171°
2026-05-04 15:35 47.89914 16.65370 9471 ft 279 kts 171°
2026-05-04 15:35 47.87999 16.65946 10266 ft 283 kts 171°
2026-05-04 15:35 47.85992 16.66547 10555 ft 306 kts 171°
2026-05-04 15:36 47.81579 16.67876 11477 ft 333 kts 171°
2026-05-04 15:36 47.79299 16.68568 12213 ft 336 kts 171°
2026-05-04 15:36 47.76986 16.69268 12962 ft 339 kts 170°
2026-05-04 15:37 47.74654 16.69975 13694 ft 343 kts 171°
2026-05-04 15:37 47.72327 16.70679 14352 ft 346 kts 171°
2026-05-04 15:37 47.69964 16.71389 14964 ft 350 kts 171°
2026-05-04 15:37 47.67551 16.72112 15586 ft 353 kts 170°
2026-05-04 15:38 47.65124 16.72839 16190 ft 357 kts 171°
2026-05-04 15:38 47.62670 16.73571 16808 ft 361 kts 171°
2026-05-04 15:38 47.60221 16.74302 17405 ft 365 kts 171°
2026-05-04 15:38 47.57717 16.75050 17998 ft 369 kts 171°
2026-05-04 15:39 47.55156 16.75514 18544 ft 371 kts 178°
2026-05-04 15:39 47.52564 16.75762 19059 ft 375 kts 178°
2026-05-04 15:39 47.47292 16.76261 20076 ft 383 kts 178°
2026-05-04 15:40 47.44618 16.76516 20582 ft 387 kts 178°
2026-05-04 15:40 47.41953 16.76774 21086 ft 391 kts 178°
2026-05-04 15:40 47.39215 16.77038 21584 ft 395 kts 178°
2026-05-04 15:40 47.36446 16.77303 22077 ft 399 kts 178°
2026-05-04 15:41 47.33658 16.77571 22552 ft 403 kts 178°
2026-05-04 15:41 47.30834 16.77843 23032 ft 407 kts 178°
2026-05-04 15:41 47.27987 16.78115 23493 ft 411 kts 178°
2026-05-04 15:41 47.25117 16.78391 23884 ft 415 kts 178°
2026-05-04 15:42 47.22257 16.78663 24262 ft 418 kts 178°
2026-05-04 15:42 47.19337 16.78939 24645 ft 421 kts 178°
2026-05-04 15:42 47.16387 16.79220 25031 ft 424 kts 178°
2026-05-04 15:42 47.13467 16.79496 25387 ft 426 kts 178°
2026-05-04 15:43 47.10484 16.79774 25749 ft 429 kts 178°
2026-05-04 15:43 47.07490 16.80056 26103 ft 432 kts 178°
2026-05-04 15:43 47.04478 16.80340 26455 ft 434 kts 178°
2026-05-04 15:43 47.01485 16.80623 26791 ft 437 kts 178°
2026-05-04 15:44 46.98439 16.80913 27125 ft 440 kts 178°
2026-05-04 15:44 46.95372 16.81207 27462 ft 442 kts 177°
2026-05-04 15:44 46.92310 16.81913 27791 ft 447 kts 166°
2026-05-04 15:44 46.89402 16.83445 28104 ft 450 kts 155°
2026-05-04 15:45 46.86692 16.85807 28422 ft 454 kts 143°
2026-05-04 15:45 46.84325 16.88910 28737 ft 457 kts 132°
2026-05-04 15:45 46.82430 16.92558 29034 ft 458 kts 122°
2026-05-04 15:45 46.80739 16.96529 29327 ft 460 kts 121°
2026-05-04 15:46 46.79036 17.00509 29623 ft 462 kts 121°
2026-05-04 15:46 46.77318 17.04493 29920 ft 464 kts 122°
2026-05-04 15:46 46.75586 17.08494 30197 ft 466 kts 122°
2026-05-04 15:46 46.73865 17.12454 30418 ft 467 kts 122°
2026-05-04 15:47 46.72120 17.16474 30655 ft 469 kts 122°
2026-05-04 15:47 46.70374 17.20495 30874 ft 470 kts 122°
2026-05-04 15:47 46.68621 17.24527 31144 ft 469 kts 122°
2026-05-04 15:47 46.66893 17.28499 31455 ft 468 kts 122°
2026-05-04 15:48 46.65143 17.32518 31773 ft 467 kts 122°
2026-05-04 15:48 46.63402 17.36511 32073 ft 466 kts 122°
2026-05-04 15:48 46.59929 17.44460 32687 ft 465 kts 122°
2026-05-04 15:49 46.58190 17.48424 32974 ft 465 kts 122°
2026-05-04 15:49 46.56443 17.52403 33274 ft 464 kts 122°
2026-05-04 15:49 46.54729 17.56306 33572 ft 464 kts 122°
2026-05-04 15:49 46.52988 17.60264 33868 ft 463 kts 122°
2026-05-04 15:50 46.51250 17.64205 34148 ft 463 kts 122°
2026-05-04 15:50 46.49509 17.68145 34410 ft 462 kts 122°
2026-05-04 15:50 46.47793 17.72021 34674 ft 461 kts 122°
2026-05-04 15:50 46.46058 17.75934 34921 ft 460 kts 122°
2026-05-04 15:51 46.44325 17.79845 35030 ft 459 kts 122°
2026-05-04 15:51 46.42597 17.83744 35053 ft 457 kts 122°
2026-05-04 15:51 46.39172 17.91467 35052 ft 456 kts 122°
2026-05-04 15:52 46.35729 17.99188 35051 ft 456 kts 122°
2026-05-04 15:52 46.32291 18.06864 35054 ft 456 kts 122°
2026-05-04 15:53 46.28837 18.14574 35056 ft 456 kts 122°
2026-05-04 15:53 46.25395 18.22227 35058 ft 456 kts 122°
2026-05-04 15:54 46.21924 18.29916 35054 ft 456 kts 122°
2026-05-04 15:54 46.18449 18.37593 35056 ft 456 kts 122°
2026-05-04 15:55 46.14997 18.45217 35052 ft 456 kts 122°
2026-05-04 15:55 46.11515 18.52897 35057 ft 456 kts 122°
2026-05-04 15:56 46.08042 18.60508 35061 ft 457 kts 122°
2026-05-04 15:56 46.04535 18.68160 35063 ft 457 kts 122°
2026-05-04 15:57 46.01056 18.75751 35063 ft 456 kts 122°
2026-05-04 15:57 45.97553 18.83383 35068 ft 457 kts 122°
2026-05-04 15:58 45.94595 18.89692 35064 ft 457 kts 126°
2026-05-04 15:58 45.91724 18.94132 35070 ft 459 kts 138°
2026-05-04 15:58 45.89174 18.96918 35070 ft 460 kts 144°
2026-05-04 15:59 45.84808 19.01286 35064 ft 460 kts 144°
2026-05-04 15:59 45.79559 19.06575 35066 ft 461 kts 144°
2026-05-04 16:00 45.74299 19.11879 35066 ft 461 kts 144°
2026-05-04 16:00 45.69064 19.17116 35065 ft 461 kts 144°
2026-05-04 16:01 45.63785 19.22382 35070 ft 462 kts 144°
2026-05-04 16:01 45.58523 19.27624 35073 ft 462 kts 144°
2026-05-04 16:02 45.53227 19.32889 35066 ft 463 kts 144°
2026-05-04 16:03 45.45309 19.40740 35076 ft 464 kts 144°
2026-05-04 16:03 45.40016 19.45968 35089 ft 464 kts 144°
2026-05-04 16:04 45.34687 19.51217 35095 ft 464 kts 144°
2026-05-04 16:04 45.26729 19.59043 35097 ft 465 kts 143°
2026-05-04 16:05 45.21397 19.64266 35098 ft 465 kts 143°
2026-05-04 16:06 45.13417 19.72058 35097 ft 465 kts 143°
2026-05-04 16:07 45.02759 19.82428 35101 ft 466 kts 143°
2026-05-04 16:08 44.92189 19.92677 35096 ft 467 kts 143°
2026-05-04 16:09 44.78781 20.05591 35098 ft 468 kts 143°
2026-05-04 16:10 44.67999 20.15933 35100 ft 469 kts 143°
2026-05-04 16:11 44.57231 20.26226 35107 ft 469 kts 143°
2026-05-04 16:12 44.41012 20.41613 35110 ft 470 kts 143°
2026-05-04 16:13 44.30144 20.51865 35119 ft 470 kts 143°
2026-05-04 16:14 44.19170 20.61730 35114 ft 472 kts 151°
2026-05-04 16:16 44.04554 20.72211 35110 ft 472 kts 150°
2026-05-04 16:17 43.90475 20.83754 35105 ft 470 kts 144°
2026-05-04 16:18 43.79553 20.93693 35106 ft 470 kts 144°
2026-05-04 16:19 43.65854 21.06083 35110 ft 471 kts 144°
2026-05-04 16:20 43.52108 21.18436 35111 ft 472 kts 144°
2026-05-04 16:22 43.38321 21.30783 35121 ft 472 kts 144°
2026-05-04 16:23 43.21760 21.45512 35119 ft 473 kts 144°
2026-05-04 16:25 43.05204 21.60132 35127 ft 473 kts 144°
2026-05-04 16:26 42.93871 21.69227 35126 ft 477 kts 158°
2026-05-04 16:26 42.84417 21.73436 35124 ft 479 kts 159°
2026-05-04 16:28 42.68558 21.80436 35116 ft 480 kts 159°
2026-05-04 16:29 42.46268 21.90191 35115 ft 481 kts 159°
2026-05-04 16:31 42.30354 21.97131 35111 ft 482 kts 159°
2026-05-04 16:32 42.11210 22.05428 35105 ft 482 kts 160°
2026-05-04 16:33 41.98483 22.11070 35102 ft 481 kts 158°
2026-05-04 16:34 41.89058 22.15715 35102 ft 481 kts 157°
2026-05-04 16:35 41.70133 22.24731 35090 ft 481 kts 158°
2026-05-04 16:36 41.60669 22.29232 35090 ft 481 kts 158°
2026-05-04 16:37 41.51201 22.33721 35096 ft 481 kts 158°
2026-05-04 16:38 41.38584 22.39643 35088 ft 481 kts 158°
2026-05-04 16:39 41.22782 22.47057 35089 ft 482 kts 158°
2026-05-04 16:40 41.10170 22.53059 35085 ft 482 kts 155°
2026-05-04 16:41 40.94913 22.62231 35076 ft 481 kts 153°
2026-05-04 16:43 40.79592 22.71112 35084 ft 482 kts 154°
2026-05-04 16:43 40.70363 22.76450 35090 ft 482 kts 154°
2026-05-04 16:45 40.52950 22.86491 35101 ft 482 kts 154°
2026-05-04 16:46 40.37604 22.95306 35095 ft 483 kts 154°
2026-05-04 16:47 40.25274 23.02341 35087 ft 483 kts 154°
2026-05-04 16:48 40.12925 23.09373 35094 ft 484 kts 155°
2026-05-04 16:49 40.00608 23.16338 35092 ft 484 kts 155°
2026-05-04 16:50 39.88238 23.23315 35099 ft 483 kts 155°
2026-05-04 16:51 39.79004 23.28506 35103 ft 483 kts 155°
2026-05-04 16:52 39.66640 23.35443 35108 ft 484 kts 155°
2026-05-04 16:53 39.57389 23.40604 35103 ft 484 kts 155°
2026-05-04 16:54 39.44992 23.47515 35107 ft 484 kts 155°
2026-05-04 16:55 39.26411 23.57723 35115 ft 485 kts 158°
2026-05-04 16:56 39.11573 23.67663 35109 ft 481 kts 141°
2026-05-04 16:57 39.03540 23.75346 35109 ft 481 kts 141°
2026-05-04 16:58 38.98630 23.80005 35106 ft 481 kts 142°
2026-05-04 17:00 38.89152 23.88316 35117 ft 481 kts 139°
2026-05-04 17:00 38.81296 23.96407 34993 ft 483 kts 141°
2026-05-04 17:01 38.75838 24.01556 33081 ft 492 kts 142°
2026-05-04 17:01 38.70330 24.06578 31746 ft 483 kts 143°
2026-05-04 17:02 38.64914 24.11564 30473 ft 475 kts 142°
2026-05-04 17:02 38.59850 24.16284 29171 ft 465 kts 141°
2026-05-04 17:03 38.57247 24.18697 28572 ft 460 kts 141°
2026-05-04 17:03 38.54669 24.21097 27965 ft 454 kts 141°
2026-05-04 17:03 38.49612 24.25808 26794 ft 444 kts 141°
2026-05-04 17:04 38.44741 24.30329 26170 ft 424 kts 141°
2026-05-04 17:04 38.39875 24.34443 25669 ft 417 kts 147°
2026-05-04 17:05 38.34929 24.38175 25168 ft 413 kts 146°
2026-05-04 17:05 38.30018 24.41884 24685 ft 408 kts 147°
2026-05-04 17:06 38.25146 24.45557 24199 ft 404 kts 146°
2026-05-04 17:06 38.22727 24.47382 24011 ft 402 kts 147°
2026-05-04 17:07 38.17920 24.50999 23451 ft 401 kts 146°
2026-05-04 17:07 38.16329 24.52191 23044 ft 399 kts 147°
2026-05-04 17:07 38.13160 24.54569 22279 ft 398 kts 146°
2026-05-04 17:07 38.10786 24.56354 21708 ft 397 kts 146°
2026-05-04 17:08 38.08407 24.58140 21156 ft 396 kts 146°
2026-05-04 17:08 38.03670 24.61683 20062 ft 393 kts 146°
2026-05-04 17:08 38.01309 24.63451 19540 ft 392 kts 146°
2026-05-04 17:09 37.98999 24.65177 19026 ft 391 kts 146°
2026-05-04 17:09 37.96657 24.66931 18515 ft 390 kts 146°
2026-05-04 17:09 37.94322 24.68677 17952 ft 388 kts 146°
2026-05-04 17:10 37.89682 24.72137 16825 ft 387 kts 146°
2026-05-04 17:10 37.82760 24.77276 15198 ft 383 kts 146°
2026-05-04 17:11 37.80459 24.78989 14678 ft 382 kts 146°
2026-05-04 17:11 37.78175 24.80690 14155 ft 381 kts 146°
2026-05-04 17:11 37.73790 24.83953 13085 ft 377 kts 147°
2026-05-04 17:12 37.71529 24.85631 12526 ft 375 kts 147°
2026-05-04 17:12 37.67070 24.88925 11446 ft 371 kts 147°
2026-05-04 17:13 37.60445 24.93824 9866 ft 363 kts 147°
2026-05-04 17:14 37.53958 24.98605 8204 ft 357 kts 147°
2026-05-04 17:14 37.52540 24.99648 7842 ft 355 kts 147°
2026-05-04 17:14 37.50623 25.01023 7356 ft 354 kts 147°
2026-05-04 17:15 37.48503 25.02577 6831 ft 351 kts 145°
2026-05-04 17:15 37.44955 25.06646 5744 ft 339 kts 129°
2026-05-04 17:16 37.41813 25.10667 5001 ft 307 kts 129°
2026-05-04 17:16 37.37480 25.16174 4270 ft 290 kts 129°
2026-05-04 17:17 37.36069 25.17974 4036 ft 289 kts 129°
2026-05-04 17:17 37.31893 25.23283 3341 ft 275 kts 129°
2026-05-04 17:18 37.30583 25.24940 3113 ft 266 kts 129°
2026-05-04 17:18 37.28036 25.28169 2645 ft 253 kts 129°
2026-05-04 17:19 37.26174 25.31694 2544 ft 235 kts 97°
2026-05-04 17:19 37.26187 25.35588 2447 ft 219 kts 64°
2026-05-04 17:20 37.27208 25.39131 2340 ft 208 kts 56°
2026-05-04 17:20 37.29215 25.40892 2226 ft 164 kts
2026-05-04 17:20 37.30309 25.40668 2169 ft 159 kts 341°
2026-05-04 17:21 37.32374 25.39745 2045 ft 158 kts 342°
2026-05-04 17:21 37.34360 25.38870 2000 ft 140 kts 342°
2026-05-04 17:22 37.35268 25.38471 1977 ft 137 kts 342°
2026-05-04 17:22 37.36163 25.38076 1763 ft 135 kts 343°
2026-05-04 17:23 37.38805 25.36905 1197 ft 134 kts 342°
2026-05-04 17:23 37.39696 25.36512 1012 ft 136 kts 342°
2026-05-04 17:23 37.41485 25.35724 637 ft 139 kts 344°
2026-05-04 17:24 37.42394 25.35309 499 ft 140 kts 344°
2026-05-04 17:24 37.44704 25.34310 2702 ft 71 kts 342°
2026-05-04 17:25 37.45248 25.34046 2775 ft 115 kts 342°
2026-05-04 17:25 37.47501 25.33081 3458 ft 214 kts 341°
2026-05-04 17:26 37.49690 25.30144 3498 ft 242 kts 288°
2026-05-04 17:26 37.47000 25.24824 3509 ft 280 kts 200°
2026-05-04 17:27 37.43105 25.24182 3511 ft 283 kts 185°
2026-05-04 17:27 37.39217 25.24342 3511 ft 282 kts 158°
2026-05-04 17:28 37.36132 25.27230 3503 ft 281 kts 147°
2026-05-04 17:29 37.30541 25.29318 3512 ft 263 kts 165°
2026-05-04 17:29 37.25322 25.31076 3509 ft 250 kts 149°
2026-05-04 17:30 37.22550 25.35583 3516 ft 207 kts 71°
2026-05-04 17:31 37.24287 25.37784 3520 ft 180 kts 13°
2026-05-04 17:31 37.27910 25.39362 2885 ft 189 kts 15°
2026-05-04 17:32 37.30391 25.40461 2112 ft 189 kts 15°
2026-05-04 17:33 37.33701 25.39680 2388 ft 176 kts 322°
2026-05-04 17:33 37.34593 25.38735 2248 ft 158 kts 330°
2026-05-04 17:34 37.37337 25.37494 1681 ft 134 kts 342°
2026-05-04 17:34 37.38203 25.37108 1491 ft 134 kts 342°
2026-05-04 17:35 37.40859 25.35998 858 ft 134 kts 341°
2026-05-04 17:35 37.42652 25.35202 448 ft 137 kts 341°
2026-05-04 17:35 37.43230 25.34948 398 ft 120 kts 341°
2026-05-04 17:36 37.43753 25.34720 400 ft 61 kts 341°
2026-05-04 17:36 37.44036 25.34594 402 ft 28 kts 342°
2026-05-04 17:36 37.44197 25.34523 401 ft 24 kts 341°
2026-05-04 17:36 37.44293 25.34490 401 ft 7 kts 225°
2026-05-04 17:37 37.44236 25.34507 401 ft 15 kts 159°
2026-05-04 17:37 37.44139 25.34550 401 ft 14 kts 160°
2026-05-04 17:37 37.44046 25.34592 401 ft 13 kts 161°
2026-05-04 17:37 37.43969 25.34625 403 ft 10 kts 161°
2026-05-04 17:38 37.43898 25.34657 404 ft 12 kts 161°
2026-05-04 17:38 37.43791 25.34702 402 ft 19 kts 161°
2026-05-04 17:38 37.43674 25.34712 400 ft 16 kts 204°
2026-05-04 17:38 37.43577 25.34686 400 ft 13 kts 162°
2026-05-04 17:39 37.43524 25.34663 401 ft 3 kts 249°
2026-05-04 17:39 37.43522 25.34656 404 ft 0 kts 250°
2026-05-04 17:49 37.43522 25.34657 404 ft 0 kts 250°
2026-05-04 18:08 37.43522 25.34658 404 ft 0 kts 250°